Location: ?????????
(41.2393°N, 22.9479°E)
Time: 23:10:07
(UTC+00:00)

Cosmos 1869 - Pass Details

Date: 17 November 2025
Orbit: 453 x 480 km, 82.5° (Epoch: 13 December)

Event Time Altitude Azimuth Distance (km) Brightness Sun altitude
Rises 15:34:04 0° 168° (SSE) 2,492 6.8 -5.5°
Reaches altitude 10° 15:36:16 10° 159° (SSE) 1,615 5.7 -5.9°
Maximum altitude 15:39:29 34° 93° (E) 779 3.6 -6.4°
Drops below altitude 10° 15:42:42 10° 26° (NNE) 1,613 5.3 -7.0°
Sets 15:44:53 0° 17° (NNE) 2,488 6.3 -7.4°
